[Date Prev][Date Next][Thread Prev][Thread Next] - [Date Index][Thread Index][Author Index]
2 Line ISS Keps 10-18
- Subject: [sarex] 2 Line ISS Keps 10-18
- From: "Dave Larsen PhD" <doc@xxxxxxxxxxx>
- Date: Fri, 18 Oct 2002 02:15:52 -0700
ISS
1 25544U 98067A 02291.09715564 .00051530 00000-0 64460-3 0 2722
2 25544 51.6355 155.6436 0019425 15.9048 120.6983 15.59065160223201
----
Via the sarex mailing list at AMSAT.ORG courtesy of AMSAT-NA.
To unsubscribe, send "unsubscribe sarex" to Majordomo@amsat.org
AMSAT Home